�������l�o���
Date,Time,MP-1(��Sv/h),MP-2(��Sv/h),MP-3(��Sv/h),MP-4(��Sv/h),MP-5(��Sv/h),MP-6(��Sv/h),MP-7(��Sv/h),MP-8(��Sv/h),����,����(m/s),���J
2014/10/14,00:00,1.993,3.470,3.865,3.483,3.488,1.357,1.923,2.175,-,CALM,�L
2014/10/14,00:10,1.975,3.413,3.813,3.450,3.400,1.337,1.905,2.165,��,4.3,�L
2014/10/14,00:20,1.960,3.378,3.762,3.425,3.323,1.323,1.900,2.157,-,CALM,�L
2014/10/14,00:30,1.967,3.395,3.745,3.428,3.275,1.322,1.898,2.165,���쓌,2.4,�L
2014/10/14,00:40,1.988,3.450,3.757,3.452,3.265,1.333,1.907,2.175,��,3.3,�L
2014/10/14,00:50,2.008,3.497,3.787,3.485,3.285,1.345,1.913,2.178,���쓌,2.9,�L
2014/10/14,01:00,2.027,3.535,3.815,3.510,3.315,1.355,1.923,2.183,��,6.6,�L
2014/10/14,01:10,2.020,3.518,3.803,3.510,3.288,1.355,1.918,2.182,�쓌,10.7,�L
2014/10/14,01:20,2.015,3.498,3.790,3.497,3.268,1.350,1.918,2.177,-,CALM,�L
2014/10/14,01:30,2.012,3.490,3.783,3.493,3.262,1.352,1.920,2.173,-,CALM,�L
2014/10/14,01:40,2.007,3.490,3.778,3.492,3.258,1.352,1.918,2.168,-,CALM,�L
2014/10/14,01:50,1.993,3.457,3.748,3.475,3.220,1.343,1.913,2.167,-,CALM,�L
2014/10/14,02:00,1.983,3.445,3.730,3.467,3.195,1.338,1.905,2.158,-,CALM,�L
2014/10/14,02:10,1.973,3.417,3.690,3.448,3.147,1.332,1.902,2.152,-,CALM,�L
2014/10/14,02:20,1.962,3.383,3.640,3.425,3.083,1.323,1.890,2.150,-,CALM,�L
2014/10/14,02:30,1.952,3.368,3.597,3.407,3.017,1.317,1.882,2.138,-,CALM,�L
2014/10/14,02:40,1.953,3.372,3.560,3.393,2.963,1.310,1.880,2.137,-,CALM,�L
2014/10/14,02:50,1.957,3.377,3.540,3.387,2.923,1.307,1.877,2.138,-,CALM,�L
2014/10/14,03:00,1.957,3.372,3.512,3.373,2.873,1.302,1.872,2.132,-,CALM,�L
2014/10/14,03:10,1.943,3.323,3.448,3.330,2.797,1.285,1.860,2.125,-,CALM,�L
2014/10/14,03:20,1.925,3.292,3.345,3.292,2.707,1.263,1.848,2.112,-,CALM,�L
2014/10/14,03:30,1.958,3.380,3.358,3.337,2.742,1.278,1.858,2.125,-,CALM,�L
2014/10/14,03:40,1.978,3.422,3.398,3.368,2.788,1.293,1.867,2.132,-,CALM,�L
2014/10/14,03:50,1.988,3.443,3.457,3.392,2.848,1.305,1.875,2.140,-,CALM,�L
2014/10/14,04:00,1.998,3.457,3.512,3.410,2.903,1.313,1.883,2.147,��,16.9,�L
2014/10/14,04:10,2.002,3.457,3.542,3.413,2.942,1.318,1.887,2.147,��,12.1,�L
2014/10/14,04:20,1.997,3.452,3.572,3.415,2.972,1.318,1.890,2.148,��,13.4,�L
2014/10/14,04:30,2.002,3.460,3.595,3.420,3.005,1.322,1.895,2.152,��,11.5,�L
2014/10/14,04:40,2.005,3.475,3.622,3.437,3.043,1.327,1.898,2.155,��쓌,14.6,��
2014/10/14,04:50,2.013,3.507,3.662,3.455,3.090,1.335,1.903,2.157,��쓌,12.6,��
2014/10/14,05:00,2.022,3.530,3.698,3.468,3.135,1.340,1.910,2.163,��,15.2,��
2014/10/14,05:10,2.030,3.542,3.725,3.478,3.162,1.345,1.908,2.168,��,12.7,�L
2014/10/14,05:20,2.022,3.518,3.718,3.465,3.150,1.340,1.908,2.165,�쐼,8.2,�L
2014/10/14,05:30,2.012,3.512,3.723,3.463,3.158,1.338,1.908,2.167,��,9.4,��
2014/10/14,05:40,2.015,3.535,3.740,3.475,3.197,1.340,1.908,2.172,��,11.5,��
2014/10/14,05:50,2.023,3.548,3.760,3.488,3.225,1.347,1.910,2.175,��,9.3,��
2014/10/14,06:00,2.027,3.558,3.777,3.497,3.247,1.347,1.915,2.177,��,10.5,��
2014/10/14,06:10,2.028,3.567,3.792,3.505,3.265,1.350,1.920,2.177,���k��,8.5,��
2014/10/14,06:20,2.030,3.573,3.802,3.508,3.283,1.357,1.923,2.180,���k��,8.0,��
2014/10/14,06:30,2.030,3.582,3.815,3.513,3.300,1.355,1.927,2.185,�k��,7.7,��
2014/10/14,06:40,2.030,3.587,3.828,3.525,3.318,1.355,1.927,2.187,�k��,9.1,��
2014/10/14,06:50,2.032,3.592,3.835,3.535,3.332,1.360,1.932,2.183,���k��,9.6,��
2014/10/14,07:00,2.035,3.595,3.848,3.537,3.348,1.362,1.935,2.182,�k��,9.6,��
2014/10/14,07:10,2.033,3.597,3.855,3.542,3.358,1.363,1.940,2.187,�k��,8.3,��
2014/10/14,07:20,2.035,3.598,3.860,3.545,3.373,1.363,1.940,2.190,�k�k��,6.3,��
2014/10/14,07:30,2.035,3.607,3.872,3.547,3.390,1.365,1.942,2.187,�k,5.6,��
2014/10/14,07:40,2.038,3.605,3.873,3.550,3.403,1.367,1.940,2.188,�k,7.2,��
2014/10/14,07:50,2.037,3.610,3.883,3.553,3.413,1.370,1.945,2.192,�k,6.3,��
2014/10/14,08:00,2.037,3.613,3.888,3.555,3.417,1.367,1.947,2.193,�k,5.4,��
2014/10/14,08:10,2.043,3.615,3.895,3.562,3.427,1.372,1.947,2.192,�k,5.4,��
2014/10/14,08:20,2.042,3.622,3.902,3.562,3.438,1.370,1.952,2.195,�k,6.1,��
2014/10/14,08:30,2.040,3.622,3.900,3.565,3.443,1.373,1.952,2.195,�k,6.0,��
2014/10/14,08:40,2.042,3.625,3.907,3.565,3.448,1.373,1.952,2.193,�k,4.3,��
2014/10/14,08:50,2.042,3.625,3.912,3.568,3.457,1.377,1.952,2.198,�k�k��,3.4,��
2014/10/14,09:00,2.042,3.630,3.920,3.575,3.465,1.378,1.952,2.198,�k�k��,4.3,��
2014/10/14,09:10,2.045,3.637,3.923,3.577,3.470,1.375,1.953,2.198,�k,5.0,��
2014/10/14,09:20,2.045,3.643,3.930,3.578,3.480,1.375,1.955,2.197,�k�k��,5.1,��
2014/10/14,09:30,2.048,3.645,3.937,3.582,3.492,1.378,1.955,2.200,�k�k��,5.7,��
2014/10/14,09:40,2.050,3.647,3.942,3.585,3.503,1.380,1.957,2.202,�k�k��,5.8,��
2014/10/14,09:50,2.052,3.650,3.947,3.583,3.513,1.380,1.955,2.202,�k��,6.3,��
2014/10/14,10:00,2.052,3.653,3.953,3.585,3.520,1.382,1.962,2.202,�k�k��,9.6,��
2014/10/14,10:10,2.052,3.655,3.962,3.590,3.527,1.383,1.962,2.205,�k��,7.7,��
2014/10/14,10:20,2.052,3.662,3.965,3.593,3.532,1.385,1.965,2.207,�k��,11.0,��
2014/10/14,10:30,2.057,3.668,3.970,3.598,3.540,1.380,1.960,2.205,�k�k��,8.3,��
2014/10/14,10:40,2.053,3.672,3.977,3.600,3.548,1.385,1.962,2.205,�k�k��,7.1,��
2014/10/14,10:50,2.057,3.672,3.978,3.600,3.553,1.387,1.963,2.210,�k�k��,8.0,��
2014/10/14,11:00,2.058,3.678,3.983,3.607,3.552,1.388,1.965,2.210,�k��,6.1,��
2014/10/14,11:10,2.058,3.680,3.988,3.608,3.562,1.387,1.968,2.208,�k��,7.8,��
2014/10/14,11:20,2.058,3.687,3.992,3.608,3.567,1.387,1.967,2.213,�k��,6.6,��
2014/10/14,11:30,2.058,3.685,3.993,3.612,3.572,1.388,1.972,2.210,�k��,7.5,��
2014/10/14,11:40,2.058,3.688,3.993,3.615,3.578,1.388,1.973,2.215,�k�k��,5.7,��
2014/10/14,11:50,2.063,3.693,4.000,3.617,3.578,1.392,1.975,2.213,�k�k��,8.5,��
2014/10/14,12:00,2.063,3.693,4.005,3.618,3.588,1.392,1.973,2.213,�k�k��,9.9,��
2014/10/14,12:10,2.063,3.698,4.007,3.620,3.598,1.390,1.975,2.217,�k��,12.9,��
2014/10/14,12:20,2.063,3.700,4.010,3.625,3.600,1.392,1.975,2.220,�k�k��,9.6,��
2014/10/14,12:30,2.063,3.700,4.013,3.623,3.607,1.395,1.973,2.217,�k��,11.0,��
2014/10/14,12:40,2.065,3.703,4.017,3.625,3.615,1.395,1.975,2.217,�k�k��,10.7,��
2014/10/14,12:50,2.063,3.708,4.022,3.627,3.617,1.393,1.977,2.215,�k��,10.7,��
2014/10/14,13:00,2.070,3.713,4.025,3.633,3.623,1.395,1.978,2.218,�k��,9.6,��
2014/10/14,13:10,2.070,3.715,4.027,3.638,3.628,1.397,1.980,2.217,�k�k��,9.9,��
2014/10/14,13:20,2.070,3.715,4.035,3.637,3.633,1.397,1.980,2.217,�k�k��,9.4,��
2014/10/14,13:30,2.070,3.713,4.033,3.640,3.635,1.397,1.980,2.218,�k�k��,7.5,��
2014/10/14,13:40,2.068,3.715,4.038,3.640,3.638,1.400,1.985,2.218,�k�k��,6.5,��
2014/10/14,13:50,2.070,3.720,4.040,3.642,3.640,1.397,1.987,2.222,�k�k��,7.4,��
2014/10/14,14:00,2.070,3.720,4.042,3.647,3.645,1.395,1.987,2.220,�k�k��,4.9,��
2014/10/14,14:10,2.072,3.720,4.042,3.645,3.648,1.395,1.990,2.218,�k�k��,5.8,��
2014/10/14,14:20,2.070,3.723,4.045,3.643,3.655,1.398,1.990,2.218,�k��,6.0,��
2014/10/14,14:30,2.072,3.718,4.038,3.642,3.657,1.398,1.990,2.222,�k��,5.7,��
2014/10/14,14:40,2.072,3.722,4.043,3.640,3.655,1.397,1.990,2.220,�k��,6.8,��
2014/10/14,14:50,2.072,3.727,4.047,3.647,3.652,1.398,1.992,2.222,�k�k��,4.6,��
2014/10/14,15:00,2.070,3.722,4.050,3.647,3.660,1.398,1.992,2.222,�k��,7.8,��
2014/10/14,15:10,2.070,3.720,4.045,3.648,3.665,1.397,1.988,2.223,�k��,4.8,��
2014/10/14,15:20,2.072,3.722,4.050,3.652,3.668,1.397,1.992,2.222,�k��,6.3,��
2014/10/14,15:30,2.072,3.728,4.052,3.653,3.670,1.398,1.993,2.222,�k��,6.1,��
2014/10/14,15:40,2.075,3.728,4.052,3.652,3.672,1.403,1.993,2.222,�k��,5.6,��
2014/10/14,15:50,2.075,3.728,4.050,3.653,3.672,1.402,1.992,2.227,�k��,8.0,��
2014/10/14,16:00,2.073,3.723,4.055,3.653,3.673,1.398,1.993,2.225,���k��,9.3,��
2014/10/14,16:10,2.072,3.725,4.055,3.652,3.678,1.398,1.995,2.222,���k��,9.4,��
2014/10/14,16:20,2.072,3.723,4.053,3.653,3.675,1.397,1.993,2.222,���k��,8.2,��
2014/10/14,16:30,2.073,3.723,4.052,3.655,3.680,1.398,1.992,2.222,���k��,7.8,��
2014/10/14,16:40,2.070,3.727,4.055,3.655,3.677,1.400,1.990,2.222,���k��,8.6,��
2014/10/14,16:50,2.077,3.725,4.057,3.657,3.678,1.402,1.992,2.223,���k��,7.1,��
2014/10/14,17:00,2.073,3.723,4.058,3.653,3.682,1.400,1.990,2.223,���k��,5.8,��
2014/10/14,17:10,2.070,3.730,4.058,3.653,3.683,1.402,1.992,2.225,���k��,5.0,��
2014/10/14,17:20,2.073,3.723,4.058,3.650,3.687,1.398,1.990,2.223,���k��,6.7,��
2014/10/14,17:30,2.073,3.725,4.062,3.653,3.687,1.397,1.990,2.223,�k��,4.9,��
2014/10/14,17:40,2.070,3.727,4.057,3.657,3.690,1.400,1.993,2.223,�k��,6.6,��
2014/10/14,17:50,2.070,3.728,4.060,3.655,3.687,1.398,1.993,2.225,�k��,8.2,��
2014/10/14,18:00,2.067,3.727,4.055,3.658,3.690,1.400,1.990,2.222,�k��,7.7,��
2014/10/14,18:10,2.067,3.728,4.057,3.655,3.692,1.398,1.992,2.227,�k��,7.9,��
2014/10/14,18:20,2.067,3.725,4.058,3.655,3.695,1.398,1.990,2.223,�k��,7.4,��
2014/10/14,18:30,2.070,3.723,4.063,3.657,3.693,1.398,1.988,2.223,���k��,7.2,��
2014/10/14,18:40,2.068,3.723,4.060,3.653,3.697,1.398,1.988,2.223,�k��,6.5,��
2014/10/14,18:50,2.072,3.722,4.055,3.657,3.698,1.398,1.988,2.225,���k��,5.8,��
2014/10/14,19:00,2.068,3.723,4.058,3.653,3.698,1.398,1.987,2.225,�k��,6.0,��
2014/10/14,19:10,2.070,3.725,4.062,3.658,3.702,1.400,1.990,2.227,�k��,7.5,��
2014/10/14,19:20,2.068,3.725,4.060,3.655,3.707,1.402,1.990,2.223,�k��,7.4,��
2014/10/14,19:30,2.068,3.725,4.058,3.657,3.707,1.400,1.990,2.227,�k��,6.8,��
2014/10/14,19:40,2.068,3.728,4.065,3.653,3.707,1.402,1.990,2.225,�k��,7.2,��
2014/10/14,19:50,2.068,3.730,4.063,3.657,3.712,1.402,1.993,2.225,���k��,6.0,��
2014/10/14,20:00,2.068,3.727,4.068,3.655,3.710,1.402,1.993,2.227,���k��,6.3,��
2014/10/14,20:10,2.068,3.728,4.065,3.658,3.710,1.400,1.988,2.228,���k��,6.6,��
2014/10/14,20:20,2.070,3.727,4.067,3.655,3.715,1.402,1.993,2.227,���k��,5.7,��
2014/10/14,20:30,2.072,3.725,4.065,3.658,3.717,1.398,1.990,2.227,���k��,5.4,��
2014/10/14,20:40,2.070,3.728,4.062,3.658,3.718,1.400,1.988,2.225,�k��,4.8,��
2014/10/14,20:50,2.068,3.730,4.063,3.655,3.713,1.400,1.990,2.225,�k�k��,4.1,��
2014/10/14,21:00,2.065,3.732,4.065,3.660,3.722,1.398,1.987,2.222,�k�k��,4.1,��
2014/10/14,21:10,2.068,3.727,4.063,3.657,3.718,1.398,1.988,2.223,�k,3.2,��
2014/10/14,21:20,2.065,3.727,4.067,3.658,3.715,1.397,1.988,2.223,�k�k��,3.5,��
2014/10/14,21:30,2.067,3.727,4.062,3.652,3.717,1.398,1.988,2.223,�k�k��,3.7,��
2014/10/14,21:40,2.067,3.718,4.062,3.650,3.722,1.398,1.987,2.225,�k��,5.5,��
2014/10/14,21:50,2.068,3.723,4.063,3.652,3.722,1.398,1.987,2.223,�k��,5.0,��
2014/10/14,22:00,2.068,3.725,4.065,3.655,3.723,1.400,1.988,2.227,�k��,6.0,��
2014/10/14,22:10,2.067,3.723,4.063,3.658,3.725,1.402,1.988,2.223,�k��,5.1,��
2014/10/14,22:20,2.065,3.725,4.060,3.662,3.725,1.398,1.985,2.227,�k��,5.4,��
2014/10/14,22:30,2.068,3.730,4.063,3.658,3.722,1.400,1.983,2.223,�k��,3.4,��
2014/10/14,22:40,2.067,3.725,4.062,3.657,3.723,1.397,1.983,2.223,�k�k��,3.0,��
2014/10/14,22:50,2.067,3.723,4.060,3.655,3.722,1.398,1.987,2.223,�k��,3.3,��
2014/10/14,23:00,2.070,3.722,4.058,3.657,3.727,1.397,1.988,2.225,�k��,2.9,��
2014/10/14,23:10,2.063,3.727,4.058,3.652,3.723,1.398,1.987,2.225,���k��,3.5,��
2014/10/14,23:20,2.065,3.727,4.062,3.652,3.728,1.402,1.988,2.225,�k��,4.4,��
2014/10/14,23:30,2.062,3.722,4.063,3.655,3.728,1.400,1.983,2.227,���k��,4.2,��
2014/10/14,23:40,2.063,3.723,4.057,3.655,3.730,1.400,1.987,2.227,�k��,5.1,��
2014/10/14,23:50,2.065,3.725,4.062,3.655,3.728,1.398,1.987,2.228,�k��,6.0,��
